Location: *
(45.4590°N, 16.3650°E)
Time: 22:47:08
(UTC+00:00)

Cosmos 2084 Rocket - Pass Details

Date: 17 January 2020
Orbit: 570 x 611 km, 62.8° (Epoch: 17 February)

Event Time Altitude Azimuth Distance (km) Brightness Sun altitude
Rises 16:27:02 0° 320° (NW) 2,879 7.3 -8.4°
Reaches altitude 10° 16:29:18 10° 320° (NW) 1,973 6.4 -8.7°
Maximum altitude 16:33:47 84° 235° (SW) 620 3.6 -9.5°
Drops below altitude 10° 16:38:13 10° 145° (SE) 1,956 6.0 -10.2°
Sets 16:40:28 0° 145° (SE) 2,852 6.8 -10.6°
